This demonstration page uses our WeatherBlox Daily Observations layout. Learn more.

Left ArrowRight Arrow

40.92501, -98.34201

Hourly Observations for August 22, 2022

Temp ( °F °C ) Dew Point ( °F °C ) Humidity (%) Winds ( mph kmh ) Pressure ( in mb ) Visibility ( mi km ) Precip ( " mm )
12:53 am 00:53 Clear 63 17.2 57 13.9 81 81 Calm 30.10 1019 10 16 0.00 0.00
1:53 am 01:53 Clear 63 17.2 57 13.9 81 81 Calm 30.10 1019 10 16 0.00 0.00
2:53 am 02:53 Clear 64 17.8 57 13.9 78 78 S 3 6 30.09 1019 10 16 0.00 0.00
3:53 am 03:53 Clear 63 17.2 57 13.9 81 81 SSE 6 9 30.09 1019 10 16 0.00 0.00
4:53 am 04:53 Clear 59 15 55 12.8 87 87 Calm 30.10 1019 10 16 0.00 0.00
5:53 am 05:53 Clear 58 14.4 53 11.7 84 84 Calm 30.10 1019 10 16 0.00 0.00
6:53 am 06:53 Sunny 58 14.4 54 12.2 87 87 Calm 30.11 1020 10 16 0.00 0.00
7:53 am 07:53 Sunny 62 16.7 57 13.9 84 84 Calm 30.12 1020 10 16 0.00 0.00
8:53 am 08:53 Sunny 69 20.6 59 15 70 70 Calm 30.11 1020 10 16 0.00 0.00
9:53 am 09:53 Sunny 77 25 60 15.6 56 56 VRB 3 6 30.11 1020 10 16 0.00 0.00
10:53 am 10:53 Sunny 80 26.7 59 15 49 49 VRB 6 9 30.11 1020 10 16 0.00 0.00
11:53 am 11:53 Sunny 81 27.2 58 14.4 45 45 SSW 7 11 30.11 1020 10 16 0.00 0.00
12:53 pm 12:53 Sunny 84 28.9 56 13.3 38 38 SW 7 11 30.10 1019 10 16 0.00 0.00
1:53 pm 13:53 Sunny 85 29.4 54 12.2 35 35 SSE 5 7 30.08 1019 10 16 0.00 0.00
2:53 pm 14:53 Sunny 86 30 56 13.3 36 36 SE 6 9 30.06 1018 10 16 0.00 0.00
3:53 pm 15:53 Sunny 87 30.6 56 13.3 35 35 SSE 9 15 30.05 1018 10 16 0.00 0.00
4:53 pm 16:53 Sunny 86 30 59 15 40 40 SSE 8 13 30.05 1018 10 16 0.00 0.00
5:53 pm 17:53 Sunny 85 29.4 57 13.9 39 39 ESE 10 17 30.04 1017 10 16 0.00 0.00
6:53 pm 18:53 Sunny 83 28.3 57 13.9 41 41 SE 7 11 30.04 1017 10 16 0.00 0.00
7:53 pm 19:53 Sunny 79 26.1 60 15.6 52 52 SE 6 9 30.03 1017 10 16 0.00 0.00
8:53 pm 20:53 Clear 73 22.8 60 15.6 64 64 SSE 6 9 30.03 1017 10 16 0.00 0.00
9:53 pm 21:53 Clear 72 22.2 60 15.6 66 66 S 8 13 30.03 1017 10 16 0.00 0.00
10:53 pm 22:53 Clear 69 20.6 58 14.4 68 68 S 8 13 30.03 1017 10 16 0.00 0.00
11:53 pm 23:53 Clear 70 21.1 59 15 68 68 S 8 13 30.02 1017 10 16 0.00 0.00

Powered by AerisWeather